QPF
0.10 0.10 0.10 0.09 0.09 0.08 0.10 0.13 0.12 0.09 0.08 0.09 0.09 0.08 0.12 0.13 0.15 0.10 0.09 0.10 0.08 0.05 0.04 0.04 0.05 0.05 0.06 0.06 0.06 0.05 0.05 0.05 0.05 0.05 0.06 0.08 0.09 0.10
0.08 0.08 0.08 0.10 0.10 0.09 0.09 0.11 0.12 0.12 0.09 0.10 0.12 0.10 0.11 0.10 0.10 0.08 0.09 0.12 0.09 0.06 0.04 0.03 0.03 0.02 0.02 0.03 0.03 0.04 0.05 0.04 0.04 0.04 0.05 0.06 0.07 0.08
0.07 0.08 0.08 0.10 0.11 0.10 0.10 0.09 0.10 0.12 0.09 0.12 0.15 0.12 0.09 0.08 0.09 0.08 0.09 0.11 0.09 0.09 0.05 0.03 0.02 0.02 0.01 0.02 0.02 0.02 0.02 0.02 0.02 0.03 0.03 0.03 0.04 0.05
0.05 0.07 0.07 0.08 0.09 0.09 0.10 0.09 0.10 0.13 0.12 0.12 0.13 0.11 0.11 0.10 0.09 0.09 0.08 0.07 0.06 0.07 0.05 0.03 0.03 0.02 0.02 0.02 0.01 0.01 0.01 0.02 0.02 0.02 0.02 0.03 0.05 0.05
0.05 0.06 0.06 0.05 0.05 0.07 0.07 0.08 0.09 0.11 0.13 0.12 0.10 0.11 0.12 0.09 0.07 0.06 0.05 0.04 0.03 0.03 0.03 0.03 0.02 0.02 0.03 0.02 0.02 0.02 0.01 0.01 0.01 0.01 0.01 0.02 0.05 0.07
0.05 0.05 0.04 0.04 0.03 0.04 0.05 0.05 0.06 0.07 0.09 0.09 0.07 0.07 0.07 0.08 0.07 0.05 0.04 0.03 0.03 0.03 0.04 0.03 0.04 0.04 0.03 0.03 0.02 0.02 0.02 0.02 0.01 0.01 0.01 0.02 0.03 0.05
0.04 0.03 0.02 0.02 0.02 0.02 0.03 0.04 0.05 0.05 0.06 0.06 0.05 0.05 0.06 0.07 0.05 0.05 0.05 0.04 0.04 0.03 0.03 0.03 0.03 0.05 0.04 0.03 0.03 0.03 0.02 0.02 0.02 0.01 0.01 0.02 0.03 0.04
0.02 0.02 0.01 0.01 0.01 0.01 0.01 0.02 0.02 0.03 0.04 0.05 0.04 0.04 0.05 0.06 0.06 0.05 0.05 0.04 0.03 0.02 0.02 0.02 0.03 0.05 0.05 0.04 0.02 0.02 0.02 0.02 0.02 0.02 0.02 0.01 0.02 0.02
0.01 0.01 0.01 0.01 0.01 0.02 0.02 0.02 0.01 0.02 0.02 0.02 0.03 0.03 0.04 0.05 0.05 0.04 0.04 0.04 0.03 0.02 0.01 0.01 0.02 0.03 0.03 0.03 0.02 0.01 0.01 0.01 0.01 0.01 0.01 0.01 0.01 0.02
0.00 0.01 0.01 0.01 0.01 0.03 0.02 0.01 0.02 0.03 0.03 0.02 0.02 0.03 0.03 0.03 0.03 0.03 0.03 0.03 0.03 0.03 0.02 0.02 0.02 0.02 0.02 0.02 0.02 0.02 0.02 0.02 0.02 0.02 0.02 0.02 0.02 0.03
0.01 0.01 0.02 0.02 0.02 0.02 0.02 0.02 0.02 0.03 0.03 0.03 0.02 0.03 0.03 0.02 0.02 0.01 0.01 0.02 0.03 0.03 0.03 0.03 0.03 0.02 0.02 0.02 0.02 0.02 0.02 0.02 0.02 0.02 0.02 0.02 0.02 0.02
0.01 0.02 0.02 0.02 0.02 0.02 0.02 0.02 0.02 0.02 0.02 0.03 0.03 0.03 0.02 0.02 0.02 0.01 0.02 0.02 0.03 0.03 0.03 0.03 0.03 0.03 0.02 0.02 0.02 0.02 0.02 0.02 0.02 0.02 0.02 0.02 0.01 0.01
0.00 0.01 0.01 0.02 0.02 0.02 0.02 0.01 0.01 0.02 0.02 0.02 0.02 0.02 0.01 0.01 0.01 0.01 0.02 0.02 0.02 0.03 0.02 0.03 0.02 0.02 0.02 0.02 0.02 0.02 0.02 0.01 0.01 0.01 0.01 0.01 0.01 0.01
0.00 0.00 0.00 0.00 0.01 0.01 0.01 0.01 0.01 0.01 0.01 0.01 0.01 0.01 0.01 0.01 0.01 0.01 0.01 0.01 0.01 0.01 0.01 0.01 0.01 0.01 0.01 0.01 0.02 0.02 0.01 0.01 0.01 0.01 0.01 0.01 0.01 0.01
0.00 0.00 0.00 0.00 0.00 0.00 0.00 0.00 0.00 0.00 0.00 0.01 0.01 0.01 0.01 0.01 0.01 0.01 0.01 0.01 0.01 0.01 0.00 0.01 0.01 0.01 0.01 0.01 0.02 0.02 0.02 0.02 0.01 0.01 0.01 0.01 0.01 0.01
0.00 0.00 0.00 0.00 0.00 0.00 0.00 0.00 0.00 0.00 0.00 0.00 0.01 0.01 0.00 0.00 0.00 0.00 0.00 0.00 0.00 0.00 0.00 0.00 0.01 0.01 0.01 0.02 0.02 0.02 0.02 0.02 0.02 0.01 0.01 0.01 0.01 0.01
0.00 0.00 0.00 0.00 0.00 0.00 0.00 0.00 0.00 0.00 0.00 0.00 0.00 0.00 0.00 0.00 0.00 0.00 0.00 0.00 0.00 0.00 0.00 0.00 0.00 0.00 0.00 0.01 0.01 0.01 0.01 0.01 0.02 0.02 0.02 0.02 0.02 0.02
0.01 0.01 0.01 0.01 0.00 0.00 0.00 0.00 0.00 0.00 0.00 0.00 0.00 0.00 0.00 0.00 0.00 0.00 0.00 0.00 0.00 0.00 0.00 0.00 0.00 0.00 0.00 0.00 0.00 0.00 0.00 0.00 0.00 0.01 0.01 0.02 0.03 0.02
0.01 0.01 0.01 0.01 0.00 0.00 0.00 0.00 0.00 0.00 0.00 0.00 0.00 0.00 0.00 0.00 0.00 0.00 0.00 0.00 0.00 0.00 0.00 0.00 0.00 0.00 0.00 0.00 0.00 0.00 0.00 0.00 0.00 0.00 0.01 0.01 0.01 0.01
0.01 0.01 0.01 0.01 0.01 0.01 0.00 0.00 0.00 0.00 0.00 0.00 0.00 0.00 0.00 0.00 0.00 0.00 0.00 0.00 0.00 0.00 0.00 0.00 0.00 0.00 0.00 0.00 0.00 0.00 0.00 0.00 0.00 0.00 0.00 0.00 0.00 0.00
0.00 0.00 0.00 0.00 0.00 0.00 0.00 0.00 0.00 0.00 0.00 0.00 0.00 0.00 0.00 0.00 0.00 0.00 0.00 0.00 0.00 0.00 0.00 0.00 0.00 0.00 0.00 0.00 0.01 0.00 0.00 0.01 0.00 0.00 0.00 0.00 0.01 0.01
0.00 0.00 0.01 0.01 0.01 0.01 0.01 0.01 0.01 0.01 0.00 0.00 0.00 0.00 0.00 0.00 0.00 0.00 0.00 0.00 0.00 0.00 0.00 0.00 0.00 0.00 0.00 0.00 0.01 0.01 0.00 0.00 0.01 0.01 0.00 0.01 0.01 0.01
0.01 0.01 0.01 0.01 0.01 0.01 0.01 0.01 0.01 0.00 0.00 0.00 0.00 0.00 0.00 0.00 0.00 0.00 0.00 0.00 0.00 0.00 0.00 0.00 0.00 0.00 0.00 0.00 0.00 0.00 0.00 0.00 0.00 0.00 0.00 0.00 0.01 0.00
MSLP
1017.15 1017.30 1017.50 1017.76 1018.09 1018.49 1018.96 1019.50 1020.10 1020.75 1021.44 1022.13 1022.79 1023.39 1023.87 1024.22 1024.43 1024.50 1024.45 1024.32 1024.15 1023.97 1023.81 1023.71 1023.64 1023.62 1023.62 1023.61 1023.58 1023.52 1023.42 1023.28 1023.11 1022.91 1022.70 1022.48 1022.26 1022.03
1017.36 1017.45 1017.57 1017.75 1017.99 1018.30 1018.71 1019.21 1019.81 1020.49 1021.24 1022.02 1022.78 1023.48 1024.06 1024.51 1024.79 1024.93 1024.93 1024.84 1024.70 1024.56 1024.44 1024.37 1024.34 1024.36 1024.39 1024.43 1024.43 1024.39 1024.30 1024.17 1024.00 1023.81 1023.62 1023.43 1023.24 1023.07
1017.69 1017.74 1017.80 1017.90 1018.05 1018.27 1018.60 1019.04 1019.60 1020.28 1021.05 1021.87 1022.69 1023.46 1024.12 1024.63 1024.99 1025.19 1025.25 1025.22 1025.13 1025.04 1024.98 1024.96 1025.00 1025.07 1025.17 1025.25 1025.29 1025.28 1025.22 1025.10 1024.94 1024.77 1024.59 1024.43 1024.28 1024.15
1018.07 1018.11 1018.14 1018.18 1018.25 1018.40 1018.65 1019.02 1019.52 1020.16 1020.91 1021.72 1022.56 1023.35 1024.06 1024.62 1025.03 1025.28 1025.41 1025.43 1025.41 1025.39 1025.39 1025.45 1025.56 1025.71 1025.86 1026.00 1026.09 1026.12 1026.09 1025.99 1025.85 1025.69 1025.53 1025.39 1025.27 1025.18
1018.45 1018.50 1018.52 1018.53 1018.56 1018.65 1018.83 1019.12 1019.56 1020.13 1020.82 1021.60 1022.41 1023.19 1023.90 1024.48 1024.92 1025.22 1025.39 1025.48 1025.52 1025.57 1025.65 1025.78 1025.97 1026.18 1026.40 1026.60 1026.75 1026.82 1026.82 1026.75 1026.63 1026.49 1026.35 1026.23 1026.13 1026.06
1018.77 1018.85 1018.88 1018.90 1018.91 1018.96 1019.09 1019.32 1019.68 1020.17 1020.79 1021.49 1022.24 1022.98 1023.66 1024.23 1024.68 1025.00 1025.22 1025.35 1025.46 1025.57 1025.72 1025.91 1026.16 1026.44 1026.72 1026.97 1027.16 1027.28 1027.32 1027.29 1027.21 1027.10 1026.98 1026.87 1026.79 1026.74
1019.00 1019.12 1019.19 1019.23 1019.25 1019.29 1019.38 1019.56 1019.85 1020.26 1020.78 1021.39 1022.06 1022.72 1023.35 1023.88 1024.32 1024.65 1024.89 1025.06 1025.21 1025.38 1025.58 1025.82 1026.12 1026.44 1026.76 1027.05 1027.29 1027.45 1027.54 1027.55 1027.51 1027.43 1027.35 1027.27 1027.21 1027.17
1019.16 1019.32 1019.44 1019.51 1019.56 1019.60 1019.67 1019.81 1020.03 1020.35 1020.78 1021.29 1021.85 1022.43 1022.98 1023.47 1023.87 1024.19 1024.44 1024.64 1024.82 1025.01 1025.24 1025.52 1025.84 1026.18 1026.53 1026.85 1027.12 1027.32 1027.45 1027.51 1027.52 1027.49 1027.45 1027.40 1027.37 1027.34
1019.27 1019.47 1019.63 1019.75 1019.83 1019.88 1019.95 1020.05 1020.21 1020.46 1020.79 1021.19 1021.65 1022.13 1022.60 1023.02 1023.39 1023.68 1023.93 1024.13 1024.32 1024.53 1024.77 1025.06 1025.38 1025.73 1026.08 1026.42 1026.71 1026.94 1027.11 1027.21 1027.27 1027.29 1027.29 1027.29 1027.28 1027.27
1019.34 1019.58 1019.78 1019.94 1020.06 1020.14 1020.20 1020.28 1020.39 1020.57 1020.81 1021.12 1021.48 1021.87 1022.25 1022.61 1022.92 1023.19 1023.42 1023.61 1023.80 1024.01 1024.24 1024.51 1024.83 1025.16 1025.50 1025.83 1026.13 1026.38 1026.57 1026.72 1026.82 1026.88 1026.93 1026.95 1026.98 1026.99
1019.42 1019.68 1019.92 1020.11 1020.26 1020.36 1020.43 1020.49 1020.57 1020.69 1020.86 1021.08 1021.36 1021.66 1021.97 1022.27 1022.54 1022.77 1022.98 1023.16 1023.34 1023.53 1023.74 1023.99 1024.28 1024.58 1024.90 1025.21 1025.50 1025.75 1025.96 1026.13 1026.26 1026.35 1026.43 1026.48 1026.52 1026.56
1019.48 1019.76 1020.03 1020.25 1020.42 1020.53 1020.61 1020.66 1020.72 1020.79 1020.91 1021.08 1021.28 1021.52 1021.78 1022.03 1022.26 1022.47 1022.65 1022.82 1022.98 1023.15 1023.34 1023.56 1023.81 1024.08 1024.37 1024.65 1024.92 1025.16 1025.36 1025.53 1025.67 1025.78 1025.86 1025.93 1025.99 1026.03
1019.51 1019.81 1020.08 1020.32 1020.50 1020.63 1020.71 1020.76 1020.80 1020.86 1020.95 1021.07 1021.24 1021.44 1021.65 1021.87 1022.08 1022.27 1022.44 1022.59 1022.74 1022.89 1023.06 1023.25 1023.47 1023.71 1023.96 1024.20 1024.44 1024.65 1024.84 1024.99 1025.12 1025.22 1025.30 1025.36 1025.41 1025.46
1019.48 1019.78 1020.05 1020.29 1020.47 1020.60 1020.69 1020.74 1020.78 1020.83 1020.91 1021.02 1021.17 1021.35 1021.55 1021.76 1021.95 1022.14 1022.30 1022.44 1022.58 1022.72 1022.88 1023.05 1023.24 1023.44 1023.66 1023.87 1024.07 1024.26 1024.41 1024.54 1024.63 1024.71 1024.76 1024.81 1024.84 1024.88
1019.35 1019.64 1019.90 1020.12 1020.29 1020.41 1020.49 1020.54 1020.59 1020.65 1020.73 1020.86 1021.01 1021.20 1021.41 1021.61 1021.82 1022.00 1022.17 1022.31 1022.45 1022.59 1022.73 1022.88 1023.06 1023.24 1023.43 1023.61 1023.78 1023.93 1024.05 1024.15 1024.21 1024.25 1024.28 1024.29 1024.31 1024.33
1019.11 1019.36 1019.59 1019.78 1019.93 1020.03 1020.10 1020.15 1020.20 1020.28 1020.38 1020.53 1020.71 1020.92 1021.15 1021.37 1021.59 1021.79 1021.97 1022.12 1022.27 1022.40 1022.54 1022.69 1022.85 1023.02 1023.19 1023.36 1023.51 1023.63 1023.73 1023.79 1023.82 1023.83 1023.83 1023.82 1023.82 1023.83
1018.73 1018.95 1019.13 1019.28 1019.39 1019.46 1019.51 1019.55 1019.61 1019.71 1019.84 1020.01 1020.23 1020.47 1020.73 1020.99 1021.23 1021.45 1021.64 1021.81 1021.96 1022.10 1022.25 1022.39 1022.55 1022.72 1022.88 1023.04 1023.18 1023.30 1023.38 1023.42 1023.44 1023.43 1023.41 1023.39 1023.37 1023.37
1018.22 1018.40 1018.54 1018.63 1018.69 1018.72 1018.75 1018.79 1018.85 1018.96 1019.12 1019.33 1019.59 1019.87 1020.17 1020.46 1020.73 1020.97 1021.18 1021.36 1021.52 1021.67 1021.82 1021.97 1022.13 1022.30 1022.47 1022.63 1022.77 1022.89 1022.97 1023.02 1023.04 1023.03 1023.00 1022.98 1022.96 1022.96
1017.60 1017.73 1017.83 1017.87 1017.88 1017.88 1017.89 1017.91 1017.99 1018.12 1018.31 1018.55 1018.84 1019.16 1019.50 1019.82 1020.11 1020.38 1020.61 1020.80 1020.97 1021.13 1021.28 1021.44 1021.60 1021.78 1021.95 1022.12 1022.27 1022.40 1022.50 1022.56 1022.60 1022.61 1022.60 1022.59 1022.58 1022.58
1016.85 1016.96 1017.01 1017.03 1017.01 1016.98 1016.98 1017.01 1017.09 1017.25 1017.47 1017.75 1018.08 1018.43 1018.80 1019.15 1019.47 1019.76 1020.00 1020.21 1020.39 1020.55 1020.70 1020.86 1021.02 1021.20 1021.38 1021.56 1021.73 1021.87 1021.99 1022.08 1022.14 1022.17 1022.19 1022.19 1022.20 1022.22
1015.98 1016.07 1016.11 1016.11 1016.09 1016.07 1016.07 1016.12 1016.24 1016.42 1016.68 1017.00 1017.37 1017.76 1018.16 1018.54 1018.88 1019.19 1019.44 1019.66 1019.84 1020.00 1020.15 1020.31 1020.47 1020.64 1020.82 1021.00 1021.18 1021.34 1021.48 1021.59 1021.67 1021.73 1021.77 1021.80 1021.82 1021.84
1014.95 1015.05 1015.10 1015.12 1015.13 1015.14 1015.19 1015.29 1015.46 1015.70 1016.01 1016.38 1016.79 1017.21 1017.64 1018.04 1018.41 1018.73 1018.99 1019.21 1019.40 1019.56 1019.71 1019.85 1020.01 1020.17 1020.34 1020.51 1020.69 1020.85 1020.99 1021.11 1021.21 1021.29 1021.34 1021.38 1021.41 1021.43
1013.76 1013.89 1013.99 1014.06 1014.13 1014.23 1014.35 1014.54 1014.78 1015.10 1015.47 1015.90 1016.35 1016.82 1017.27 1017.70 1018.08 1018.41 1018.69 1018.91 1019.10 1019.25 1019.39 1019.53 1019.67 1019.81 1019.96 1020.12 1020.27 1020.42 1020.55 1020.67 1020.77 1020.84 1020.90 1020.93 1020.95 1020.96
Thickness
5742 5741 5739 5738 5738 5736 5733 5728 5718 5711 5709 5711 5711 5711 5708 5704 5700 5697 5694 5692 5689 5688 5686 5684 5683 5681 5680 5679 5678 5677 5676 5674 5673 5672 5671 5670 5668 5667
5738 5736 5735 5735 5733 5732 5730 5727 5722 5714 5707 5708 5706 5704 5701 5698 5694 5691 5687 5683 5680 5678 5677 5675 5674 5672 5671 5669 5668 5667 5666 5665 5664 5663 5661 5660 5659 5657
5733 5732 5730 5730 5728 5727 5725 5722 5718 5713 5704 5702 5700 5697 5695 5691 5686 5683 5679 5676 5672 5670 5668 5666 5664 5662 5661 5659 5657 5656 5655 5654 5653 5652 5651 5650 5648 5648
5728 5726 5725 5725 5723 5721 5719 5716 5713 5710 5703 5695 5692 5689 5686 5683 5679 5676 5672 5668 5664 5661 5659 5656 5654 5653 5651 5649 5647 5645 5644 5643 5642 5641 5639 5638 5637 5635
5722 5720 5719 5718 5716 5715 5713 5710 5708 5705 5700 5693 5687 5683 5679 5676 5672 5668 5664 5660 5657 5653 5650 5647 5645 5643 5641 5639 5636 5635 5633 5631 5630 5629 5627 5626 5624 5623
5716 5714 5712 5711 5709 5708 5706 5703 5701 5697 5693 5687 5680 5675 5671 5668 5664 5659 5655 5652 5649 5645 5642 5638 5636 5633 5631 5629 5626 5624 5622 5620 5618 5617 5615 5613 5611 5610
5710 5708 5705 5703 5701 5700 5698 5694 5692 5688 5684 5679 5673 5668 5663 5659 5655 5653 5648 5643 5640 5637 5633 5630 5627 5624 5621 5618 5616 5613 5611 5609 5607 5605 5603 5601 5599 5597
5703 5701 5698 5696 5693 5691 5688 5685 5683 5679 5675 5670 5665 5659 5655 5652 5649 5646 5641 5636 5631 5629 5626 5622 5619 5615 5611 5608 5605 5603 5601 5598 5596 5593 5591 5589 5587 5585
5696 5694 5692 5689 5686 5683 5680 5677 5674 5671 5668 5663 5657 5652 5648 5645 5642 5639 5635 5630 5625 5622 5619 5614 5611 5607 5603 5599 5596 5593 5591 5588 5586 5583 5580 5578 5575 5573
5688 5685 5682 5679 5676 5674 5672 5669 5665 5661 5659 5655 5651 5646 5642 5639 5636 5633 5628 5623 5620 5616 5612 5607 5604 5600 5597 5592 5588 5585 5582 5579 5576 5573 5571 5568 5565 5563
5680 5677 5674 5670 5667 5666 5664 5660 5656 5652 5649 5646 5642 5638 5635 5631 5627 5624 5620 5615 5610 5607 5604 5601 5597 5593 5589 5584 5580 5577 5574 5570 5567 5565 5562 5559 5556 5553
5672 5668 5665 5662 5659 5657 5655 5651 5647 5644 5641 5638 5634 5630 5626 5622 5619 5615 5611 5607 5603 5598 5595 5592 5589 5585 5581 5577 5573 5569 5565 5562 5559 5556 5553 5551 5548 5544
5665 5661 5656 5652 5650 5648 5646 5643 5639 5636 5633 5630 5626 5622 5617 5613 5610 5606 5602 5599 5594 5589 5587 5584 5580 5577 5573 5569 5566 5563 5559 5555 5552 5548 5545 5542 5539 5536
5657 5653 5648 5644 5642 5639 5637 5634 5631 5629 5626 5622 5617 5612 5608 5604 5601 5597 5594 5590 5587 5583 5579 5576 5572 5568 5565 5561 5558 5556 5552 5549 5546 5542 5539 5535 5531 5528
5649 5645 5641 5637 5634 5631 5628 5626 5623 5621 5617 5613 5608 5604 5601 5597 5593 5589 5586 5583 5580 5576 5572 5569 5565 5562 5558 5554 5551 5548 5545 5542 5539 5536 5532 5529 5526 5522
5641 5636 5633 5629 5626 5622 5620 5618 5615 5612 5608 5604 5600 5597 5594 5590 5586 5582 5578 5574 5571 5567 5565 5562 5558 5555 5550 5547 5544 5540 5538 5534 5532 5529 5525 5522 5520 5517
5633 5630 5626 5622 5619 5616 5613 5610 5607 5604 5600 5596 5593 5590 5586 5582 5578 5575 5571 5567 5563 5559 5555 5553 5551 5548 5545 5541 5536 5533 5530 5528 5525 5522 5518 5515 5514 5511
5626 5624 5620 5617 5614 5610 5607 5603 5599 5595 5591 5588 5585 5582 5578 5574 5570 5567 5564 5559 5555 5552 5549 5545 5542 5539 5536 5533 5531 5527 5523 5521 5518 5516 5512 5509 5507 5506
5619 5617 5614 5611 5607 5604 5600 5596 5591 5587 5584 5580 5577 5573 5570 5567 5563 5559 5556 5552 5548 5545 5542 5539 5536 5531 5526 5523 5522 5520 5517 5514 5512 5509 5506 5504 5501 5500
5614 5611 5609 5605 5600 5596 5592 5588 5583 5579 5576 5572 5569 5566 5562 5559 5555 5552 5548 5544 5541 5538 5535 5533 5529 5525 5520 5517 5515 5514 5513 5510 5507 5503 5501 5499 5498 5496
5609 5605 5602 5598 5594 5589 5584 5580 5576 5572 5569 5565 5562 5558 5555 5551 5547 5545 5542 5537 5534 5531 5528 5525 5523 5520 5517 5514 5511 5509 5508 5506 5503 5500 5497 5494 5492 5490
5602 5599 5595 5591 5586 5582 5577 5573 5569 5566 5562 5558 5555 5551 5547 5544 5541 5538 5535 5531 5528 5526 5523 5520 5518 5515 5511 5508 5505 5504 5503 5501 5499 5497 5494 5491 5487 5484
5595 5592 5588 5584 5580 5575 5571 5567 5563 5560 5555 5551 5548 5544 5540 5537 5534 5531 5528 5525 5523 5520 5517 5514 5511 5508 5506 5503 5501 5499 5498 5496 5494 5492 5490 5489 5486 5483